Regional Weather Roundup
Issued by NWS Newport/Morehead, NC

Current Version | Previous Version | Text Only | Print | Product List | Glossary On
Versions: 1 2 3 4 5 6 7 8 9 10 11 12 13 14 15 16 17 18 19 20 21 22 23 24 25 26 27 28 29 30 31 32 33 34 35 36 37 38 39 40 41 42 43 44 45 46 47 48 49 50
000 ASUS42 KMHX 181425 RWRMHX WEATHER ROUNDUP FOR EASTERN NORTH CAROLINA NATIONAL WEATHER SERVICE NEWPORT/MOREHEAD CITY NC 900 AM EST SUN FEB 18 2018 NOTE: "FAIR" INDICATES FEW OR NO CLOUDS BELOW 12,000 FEET WITH NO SIGNIFICANT WEATHER AND/OR OBSTRUCTIONS TO VISIBILITY NCZ015>017-031-032-045>047-102-103-181500- NORTH COAST CITY SKY/WX TMP DP RH WIND PRES REMARKS EDENTON FAIR 49 45 86 N8 30.34R ELIZABETH CITY FAIR 45 43 93 N10 30.33R KITTY HAWK FAIR N/A N/A N/A N7 30.33R MANTEO PTSUNNY 45 42 89 NE13 30.32R $$ NCZ045>047-081-094-103-104-181500- CENTRAL COAST CITY SKY/WX TMP DP RH WIND PRES REMARKS FRISCO FAIR 53 46 77 VRB6 30.29R $$ NCZ095-097-098-100-101-181500- SOUTHERN COAST CITY SKY/WX TMP DP RH WIND PRES REMARKS BEAUFORT CLOUDY 51 47 86 N9 30.29R CEDAR ISLAND NOT AVBL JACKSONVILLE CLOUDY 51 47 86 N10 30.29R PINEY ISLAND NOT AVBL WILMINGTON FAIR 55 51 86 NE7 30.27R $$ NCZ011>013-027>030-043-044-078>080-089-090>093-098-181500- COASTAL PLAIN CITY SKY/WX TMP DP RH WIND PRES REMARKS AHOSKIE FAIR 46 43 89 N3 30.33R CLINTON PTSUNNY 50 49 98 N5 30.31R ELIZABETHTOWN NOT AVBL GOLDSBORO PTSUNNY 49 46 89 N6 30.29R GREENVILLE FAIR 48 45 87 N5 30.33R HAVELOCK PTSUNNY 51 48 89 N9 30.31R KENANSVILLE FAIR 52 48 87 N8 30.32R KINSTON PTSUNNY 48 46 93 N6 30.32R NEW BERN CLOUDY 49 47 93 N5 30.31R RICHLANDS CLOUDY 49 48 97 N6 30.30R ROCKY MOUNT FAIR 44 42 93 NW5 30.31R WASHINGTON FAIR 51 45 82 N6 30.33R WHITEVILLE CLOUDY 54 52 95 NE3 30.27R $$ AMZ130-135-150-152-154-156-158-170-250-252-270-ANZ085-086-088-633-658-670-181500- MARINE OBSERVATIONS STATION/POSITION TIME TEMP WIND PRES WAVE SWELL AIR SEA DIR/SP/G HT/PER HT/PER (UTC) (F) (DEG/KT/KT) (MB) (FT/S) (FT/S) CHESAPEAKE LIGHT NOT AVBL 64 E VA BEACH 1350 46 50 360/ 19/ 21 1026.0 5/ 6 2/ 8 DUCK 1400 42 44 30/ 12/ 13 1026.4 2 E DUCK 1400 44 N/A 3/ 6 OREGON INLET 1400 45 49 10/ 11/ 15 1026.3 13E OREGON INLT 1348 45 N/A 4/ 6 2/ 8 HATTERAS CG 1400 51 56 10/ 16/ 18 1025.7 DIAMOND BUOY 1410 55 69 360/ 21/ 27 1025.8 CAPE LOOKOUT 1400 10/ 11/ 13 1025.9 BEAUFORT LAB 1400 51 53 20/ 7/ 10 1025.9 30 SE NEW RVR IN 1308 56 67 50/ 12/ 16 1024.4 30 SE NEW RVR IN 1400 67 N/A 4/11 2/11 27 SE WRIGHTSVLE 1308 56 65 20/ 14/ 21 1024.0 5 SE WRIGHTSVLE 1408 53 54 40/ 6/ 10 1024.7 225 S CAPE HAT 1350 73 73 280/ 12/ 16 1023.2 5/ 8 3/ 8 41 SE CHARLESTON 1410 66 68 310/ 10/ 12 1023.7 $$

USA.gov is the U.S. government's official web portal to all federal, state and local government web resources and services.